Quakertown, PA

11:00 AM EDT on June 26, 2017 (GMT -0400)
Quakertown

Weather History for KUKT - December, 2013

Change the Weather History Date:

Sunday, December 29, 2013

  Actual Average (KABE) Record (KABE)
Temperature  
Mean Temperature 36 °F -  
Max Temperature 41 °F 39 °F 72 °F (1984)
Min Temperature 32 °F 23 °F -1 °F (1933)
Degree Days  
Heating Degree Days 28    
Moisture  
Dew Point 34 °F    
Average Humidity 90    
Maximum Humidity 100    
Minimum Humidity 61    
Precipitation  
Precipitation 0.81 in - - ()
Sea Level Pressure  
Sea Level Pressure 29.81 in    
Wind  
Wind Speed 2 mph (NW)    
Max Wind Speed 9 mph    
Max Gust Speed -    
Visibility 7 miles    
Events      
Averages and records for this station are not official NWS values.
T = Trace of Precipitation, MM = Missing Value Source: NWS Daily Summary

Daily Weather History Graph

Daily Weather History Graph

Search for Another Location

Airport or City:

Trip Planner

Search our weather history database for the weather conditions in past years. The results will help you decide how hot, cold, wet, or windy it might be!

Date:

Astronomy

Dec. 29, 2013 Rise Set
Actual Time 7:24 AM EST 4:43 PM EST
Civil Twilight 6:53 AM EST 5:14 PM EST
Nautical Twilight 6:19 AM EST 5:48 PM EST
Astronomical Twilight 5:46 AM EST 6:21 PM EST
Moon 4:04 AM EST (12/29) 2:19 PM EST (12/29)
Length of Visible Light 10h 20m
Length of Day
9h 19m
Waning Crescent, 11% of the Moon is Illuminated
Dec 29
Waning Crescent
Jan 1
New
Jan 7
First Quarter
Jan 15
Full
Jan 24
Last Quarter

Hourly Weather History & Observations

Time (EST) Temp. Windchill Dew Point Humidity Pressure Visibility Wind Dir Wind Speed Gust Speed Precip Events Conditions
12:15 AM 32.0 °F - 26.6 °F 80% 30.09 in 10.0 mi Calm Calm - N/A   Clear
12:35 AM 32.0 °F - 26.6 °F 80% 30.08 in 10.0 mi Calm Calm - N/A   Clear
12:55 AM 32.0 °F - 26.6 °F 80% 30.07 in 10.0 mi Calm Calm - N/A   Clear
1:15 AM 32.0 °F - 26.6 °F 80% 30.07 in 10.0 mi Calm Calm - N/A   Clear
1:35 AM 32.0 °F - 26.6 °F 80% 30.08 in 9.0 mi Calm Calm - N/A   Clear
1:55 AM 32.0 °F - 26.6 °F 80% 30.08 in 10.0 mi Calm Calm - N/A   Clear
2:15 AM 32.0 °F - 28.4 °F 87% 30.07 in 10.0 mi Calm Calm - N/A   Clear
2:35 AM 32.0 °F - 28.4 °F 87% 30.06 in 10.0 mi Calm Calm - N/A   Clear
2:55 AM 32.0 °F - 28.4 °F 87% 30.05 in 10.0 mi Calm Calm - N/A   Clear
3:15 AM 32.0 °F - 28.4 °F 87% 30.05 in 9.0 mi Calm Calm - N/A   Clear
3:35 AM 32.0 °F - 28.4 °F 87% 30.05 in 10.0 mi Calm Calm - N/A   Clear
3:55 AM 32.0 °F - 28.4 °F 87% 30.04 in 10.0 mi Calm Calm - N/A   Clear
4:15 AM 32.0 °F - 28.4 °F 87% 30.04 in 10.0 mi Calm Calm - N/A   Clear
4:35 AM 32.0 °F - 28.4 °F 87% 30.02 in 10.0 mi Calm Calm - N/A   Clear
4:55 AM 32.0 °F - 30.2 °F 93% 30.01 in 10.0 mi Calm Calm - N/A   Clear
5:15 AM 33.8 °F - 30.2 °F 87% 29.99 in 10.0 mi Calm Calm - N/A   Clear
5:35 AM 33.8 °F - 28.4 °F 81% 30.00 in 10.0 mi Calm Calm - N/A   Clear
5:55 AM 33.8 °F - 28.4 °F 81% 30.00 in 10.0 mi Calm Calm - N/A   Clear
6:15 AM 33.8 °F - 30.2 °F 87% 30.01 in 10.0 mi Calm Calm - N/A   Clear
6:35 AM 33.8 °F - 30.2 °F 87% 30.00 in 10.0 mi Calm Calm - N/A   Clear
6:55 AM 35.6 °F - 30.2 °F 81% 30.00 in 10.0 mi Calm Calm - N/A   Clear
7:15 AM 35.6 °F - 30.2 °F 81% 30.01 in 10.0 mi Calm Calm - N/A   Clear
7:35 AM 35.6 °F - 30.2 °F 81% 30.01 in 10.0 mi Calm Calm - N/A   Clear
7:55 AM 35.6 °F - 30.2 °F 81% 30.01 in 10.0 mi Calm Calm - N/A   Clear
8:15 AM 39.2 °F 37.0 °F 28.4 °F 65% 30.00 in 10.0 mi South 3.5 mph - N/A   Clear
8:35 AM 41.0 °F - 28.4 °F 61% 29.99 in 10.0 mi Calm Calm - N/A   Clear
8:55 AM 41.0 °F - 28.4 °F 61% 29.99 in 10.0 mi Calm Calm - N/A   Partly Cloudy
9:15 AM 41.0 °F - 32.0 °F 70% 29.99 in 7.0 mi Calm Calm - N/A   Mostly Cloudy
9:35 AM 39.2 °F - 35.6 °F 87% 29.96 in 8.0 mi Calm Calm - 0.01 in   Mostly Cloudy
9:55 AM 39.2 °F - 35.6 °F 87% 29.95 in 8.0 mi Calm Calm - 0.01 in   Overcast
10:15 AM 39.2 °F - 35.6 °F 87% 29.94 in 5.0 mi Calm Calm - 0.01 in   Overcast
10:35 AM 39.2 °F 37.0 °F 37.4 °F 93% 29.92 in 3.0 mi NNE 3.5 mph - 0.03 in   Overcast
10:55 AM 39.2 °F - 37.4 °F 93% 29.90 in 3.0 mi Calm Calm - 0.06 in   Overcast
11:15 AM 39.2 °F 37.0 °F 37.4 °F 93% 29.87 in 2.5 mi NE 3.5 mph - 0.03 in   Overcast
11:35 AM 39.2 °F 37.0 °F 37.4 °F 93% 29.83 in 3.0 mi NE 3.5 mph - 0.08 in   Overcast
11:55 AM 39.2 °F 35.9 °F 37.4 °F 93% 29.80 in 3.0 mi ENE 4.6 mph - 0.13 in   Overcast
12:15 PM 39.2 °F 35.9 °F 37.4 °F 93% 29.77 in 2.0 mi ENE 4.6 mph - 0.04 in   Overcast
12:35 PM 39.2 °F 35.9 °F 37.4 °F 93% 29.74 in 2.0 mi NE 4.6 mph - 0.11 in   Overcast
12:55 PM 37.4 °F 32.8 °F 37.4 °F 100% 29.68 in 2.0 mi ENE 5.8 mph - 0.18 in   Overcast
1:15 PM 39.2 °F 33.6 °F 37.4 °F 93% 29.65 in 2.0 mi East 8.1 mph - 0.04 in   Overcast
1:35 PM 39.2 °F 34.2 °F 39.2 °F 100% 29.61 in 2.5 mi ENE 6.9 mph - 0.10 in   Overcast
1:55 PM 39.2 °F 33.6 °F 39.2 °F 100% 29.59 in 2.0 mi NE 8.1 mph - 0.19 in   Overcast
2:15 PM 39.2 °F 34.2 °F 39.2 °F 100% 29.58 in 1.8 mi NE 6.9 mph - 0.04 in   Overcast
2:35 PM 39.2 °F 34.2 °F 39.2 °F 100% 29.57 in 1.5 mi East 6.9 mph - 0.09 in   Overcast
2:55 PM 39.2 °F 35.9 °F 39.2 °F 100% 29.55 in 1.8 mi East 4.6 mph - 0.12 in   Overcast
3:15 PM 39.2 °F 35.0 °F 39.2 °F 100% 29.52 in 2.0 mi ENE 5.8 mph - 0.06 in   Overcast
3:35 PM 39.2 °F 34.2 °F 39.2 °F 100% 29.51 in 1.5 mi ENE 6.9 mph - 0.09 in   Overcast
3:55 PM 41.0 °F 37.1 °F 39.2 °F 93% 29.50 in 3.0 mi NE 5.8 mph - 0.11 in   Overcast
4:15 PM 41.0 °F 36.4 °F 39.2 °F 93% 29.51 in 5.0 mi West 6.9 mph - N/A   Overcast
4:35 PM 41.0 °F 36.4 °F 39.2 °F 93% 29.50 in 3.0 mi NNW 6.9 mph - 0.01 in   Overcast
4:55 PM 39.2 °F 34.2 °F 39.2 °F 100% 29.49 in 8.0 mi NNW 6.9 mph - 0.01 in   Overcast
5:15 PM 39.2 °F 33.0 °F 39.2 °F 100% 29.48 in 8.0 mi NNW 9.2 mph - N/A   Overcast
5:35 PM 39.2 °F 34.2 °F 39.2 °F 100% 29.49 in 4.0 mi WNW 6.9 mph - N/A   Overcast
5:55 PM 39.2 °F 35.9 °F 39.2 °F 100% 29.51 in 5.0 mi WNW 4.6 mph - N/A   Overcast
6:15 PM 39.2 °F 33.0 °F 39.2 °F 100% 29.54 in 5.0 mi WNW 9.2 mph - N/A   Overcast
6:35 PM 39.2 °F 33.6 °F 39.2 °F 100% 29.56 in 3.0 mi WNW 8.1 mph - N/A   Overcast
6:55 PM 39.2 °F 35.0 °F 39.2 °F 100% 29.59 in 9.0 mi West 5.8 mph - N/A   Overcast
7:15 PM 39.2 °F 33.6 °F 39.2 °F 100% 29.60 in 10.0 mi West 8.1 mph - N/A   Overcast
7:35 PM 39.2 °F 35.0 °F 39.2 °F 100% 29.63 in 9.0 mi West 5.8 mph - N/A   Overcast
7:55 PM 39.2 °F 35.9 °F 39.2 °F 100% 29.64 in 10.0 mi WSW 4.6 mph - N/A   Overcast
8:15 PM 39.2 °F 35.9 °F 37.4 °F 93% 29.65 in 10.0 mi WSW 4.6 mph - N/A   Overcast
8:35 PM 39.2 °F 35.0 °F 37.4 °F 93% 29.66 in 10.0 mi WSW 5.8 mph - N/A   Mostly Cloudy
8:55 PM 39.2 °F 35.9 °F 37.4 °F 93% 29.66 in 10.0 mi West 4.6 mph - N/A   Partly Cloudy
9:15 PM 39.2 °F 33.6 °F 37.4 °F 93% 29.68 in 10.0 mi WSW 8.1 mph - N/A   Clear
9:35 PM 39.2 °F 33.6 °F 37.4 °F 93% 29.70 in 10.0 mi West 8.1 mph - N/A   Clear
9:55 PM 39.2 °F 34.2 °F 37.4 °F 93% 29.70 in 10.0 mi WSW 6.9 mph - N/A   Clear
10:15 PM 39.2 °F 35.0 °F 37.4 °F 93% 29.71 in 10.0 mi WSW 5.8 mph - N/A   Clear
10:35 PM 39.2 °F 35.9 °F 37.4 °F 93% 29.73 in 10.0 mi WSW 4.6 mph - N/A   Clear
10:55 PM 39.2 °F 37.0 °F 35.6 °F 87% 29.73 in 10.0 mi WSW 3.5 mph - N/A   Partly Cloudy
11:15 PM 39.2 °F 35.0 °F 35.6 °F 87% 29.74 in 10.0 mi SW 5.8 mph - N/A   Unknown
11:35 PM 39.2 °F - 35.6 °F 87% 29.75 in 10.0 mi Calm Calm - N/A   Mostly Cloudy
11:55 PM 39.2 °F 37.0 °F 35.6 °F 87% 29.75 in 10.0 mi SW 3.5 mph - N/A   Overcast